Change the Weather History Date:

Monday, October 29, 2012

  Actual Average Record
Temperature  
Mean Temperature 49 °F -  
Max Temperature 64 °F 63 °F 82 °F (2004)
Min Temperature 35 °F 44 °F 30 °F (2010)
Degree Days  
Heating Degree Days 16    
Moisture  
Dew Point 31 °F    
Average Humidity 58    
Maximum Humidity 85    
Minimum Humidity 26    
Precipitation  
Precipitation 0.00 in - - ()
Sea Level Pressure  
Sea Level Pressure 30.24 in    
Wind  
Wind Speed 3 mph (SSE)    
Max Wind Speed 12 mph    
Max Gust Speed -    
Visibility 9 miles    
Events      
Averages and records for this station are not official NWS values.
T = Trace of Precipitation, MM = Missing Value Source: NWS Daily Summary

Daily Weather History Graph

Daily Weather History Graph

Search for Another Location

Airport or City:

Trip Planner

Search our weather history database for the weather conditions in past years. The results will help you decide how hot, cold, wet, or windy it might be!

Date:

Astronomy

Oct. 29, 2012 Rise Set
Actual Time 7:44 AM CDT 6:27 PM CDT
Civil Twilight 7:17 AM CDT 6:54 PM CDT
Nautical Twilight 6:46 AM CDT 7:24 PM CDT
Astronomical Twilight 6:16 AM CDT 7:55 PM CDT
Moon 6:21 PM CDT (10/29) 7:34 AM CDT (10/29)
Length of Visible Light 11h 36m
Length of Day
10h 43m
Full, 100% of the Moon is Illuminated
Oct 29
Full
Oct 29
Full
Nov 6
Last Quarter
Nov 13
New
Nov 20
First Quarter

Hourly Weather History & Observations

Time (CDT) Temp. Windchill Dew Point Humidity Pressure Visibility Wind Dir Wind Speed Gust Speed Precip Events Conditions
12:34 AM 39.2 °F - 30.2 °F 70% 30.29 in 1.8 mi Calm Calm - N/A   Haze
12:49 AM 39.2 °F - 30.2 °F 70% 30.28 in 4.0 mi Calm Calm - N/A   Haze
12:52 AM 39.9 °F - 32.0 °F 73% 30.29 in 7.0 mi Calm Calm - N/A   Overcast
1:52 AM 41.0 °F - 32.0 °F 70% 30.29 in 10.0 mi Calm Calm - N/A   Overcast
2:52 AM 41.0 °F - 33.1 °F 73% 30.29 in 10.0 mi Calm Calm - N/A   Overcast
3:52 AM 41.0 °F 37.1 °F 32.0 °F 70% 30.29 in 10.0 mi East 5.8 mph - N/A   Mostly Cloudy
4:52 AM 37.9 °F 35.5 °F 30.9 °F 76% 30.27 in 10.0 mi South 3.5 mph - N/A   Scattered Clouds
5:52 AM 37.0 °F - 30.0 °F 76% 30.30 in 10.0 mi Calm Calm - N/A   Clear
6:52 AM 36.0 °F - 28.9 °F 76% 30.30 in 10.0 mi Calm Calm - N/A   Clear
7:52 AM 35.1 °F 30.1 °F 30.9 °F 85% 30.32 in 10.0 mi NE 5.8 mph - N/A   Overcast
9:52 AM 46.9 °F - 34.0 °F 61% 30.34 in 10.0 mi South 4.6 mph - N/A   Clear
10:52 AM 52.0 °F - 32.0 °F 47% 30.31 in 10.0 mi South 11.5 mph - N/A   Clear
11:52 AM 55.9 °F - 30.9 °F 39% 30.29 in 10.0 mi South 11.5 mph - N/A   Clear
12:52 PM 59.0 °F - 28.9 °F 32% 30.27 in 10.0 mi South 10.4 mph - N/A   Clear
1:52 PM 62.1 °F - 28.9 °F 29% 30.22 in 10.0 mi South 10.4 mph - N/A   Clear
2:52 PM 63.0 °F - 28.9 °F 28% 30.18 in 10.0 mi South 10.4 mph - N/A   Clear
3:52 PM 63.0 °F - 27.0 °F 26% 30.17 in 10.0 mi SW 8.1 mph - N/A   Clear
6:52 PM 54.0 °F - 30.0 °F 40% 30.14 in 10.0 mi SSE 6.9 mph - N/A   Clear
7:52 PM 52.0 °F - 30.9 °F 45% 30.14 in 10.0 mi SSE 4.6 mph - N/A   Clear
8:52 PM 50.0 °F - 30.0 °F 46% 30.14 in 10.0 mi SE 5.8 mph - N/A   Clear
9:52 PM 46.9 °F - 30.9 °F 54% 30.13 in 10.0 mi SE 3.5 mph - N/A   Clear
10:52 PM 43.0 °F - 30.9 °F 62% 30.12 in 10.0 mi Calm Calm - N/A   Clear
11:52 PM 39.0 °F 36.8 °F 32.0 °F 76% 30.11 in 10.0 mi ESE 3.5 mph - N/A   Clear